Lid_Strength_Index
1 1 1 1 1 0 -0 -0 -0 -0 -0 -0 -1 -1 -1 -1 -0 2 5 2 -0 -5 -3 3 4 4 3 3 3 2 10 12 10 9 8 5 6 4 5 6 5 4 4 3 2
1 1 1 1 1 0 -0 -0 -0 -0 -0 -0 -1 -1 -1 -1 2 4 0 -4 -4 -4 3 3 5 4 5 5 5 7 10 10 7 6 7 6 6 6 7 7 6 5 4 3 2
1 1 0 1 0 -0 -0 -0 -0 -0 -1 -1 -1 -1 -0 0 5 6 -4 -3 -4 -3 2 2 3 5 6 5 6 6 9 7 6 5 4 6 6 5 7 7 6 6 5 4 3
1 1 1 1 0 -0 -0 -1 -1 -1 -1 -1 -1 -1 -1 2 10 3 -4 -4 -2 0 3 2 4 6 7 7 5 9 6 6 5 5 5 6 5 7 6 6 5 5 4 4 4
1 1 1 0 0 -0 -0 -0 -0 -1 -1 -0 -0 -0 2 6 6 2 -3 -2 -0 1 3 3 5 5 8 6 6 8 7 6 5 6 6 5 7 6 7 6 6 5 3 4 4
1 1 0 -0 -0 -0 -1 -1 -1 -1 -1 -1 -1 -0 3 8 1 2 2 2 1 1 2 3 4 4 6 6 7 6 6 6 6 6 6 6 7 7 6 6 6 6 5 4 4
1 1 0 -0 -0 -0 -1 -1 -1 -1 -1 -1 -1 -0 4 5 1 1 2 2 2 1 3 2 2 4 5 6 6 6 8 7 7 7 8 7 8 9 6 6 7 7 6 4 4
1 0 -0 -0 -0 -0 -0 -1 -2 -2 -1 -1 -1 1 6 0 0 1 2 2 2 1 1 1 2 4 5 5 7 8 7 12 8 7 8 8 10 8 7 8 8 7 6 5 4
0 0 0 0 0 0 -1 -1 -2 -2 -1 -1 1 3 6 -1 2 1 2 3 2 2 2 1 2 5 5 8 10 9 13 12 10 7 8 9 10 9 8 8 8 8 7 5 5
1 0 0 -0 -0 -0 -1 -2 -2 -1 -0 -0 1 5 3 4 2 1 1 2 3 3 4 4 5 8 8 10 15 13 12 11 12 9 8 10 10 8 7 8 9 9 8 6 5
1 0 0 0 -0 -0 0 1 3 5 3 5 5 5 4 2 1 2 2 3 3 4 8 6 9 11 9 8 9 9 11 12 10 9 9 11 9 8 7 8 9 10 8 7 5
1 1 0 -0 -0 0 1 3 3 3 7 3 3 3 3 2 5 3 2 6 5 8 7 8 11 8 7 7 8 9 11 12 10 10 10 9 10 8 7 9 9 9 9 7 7
1 1 0 -0 -1 1 2 2 -0 0 7 5 4 4 4 3 5 4 3 5 6 8 8 10 9 6 7 8 9 10 11 11 11 10 9 10 12 10 10 9 9 9 7 7 6
1 0 0 -1 2 1 3 0 -0 0 11 8 6 4 3 3 6 2 3 4 6 8 8 8 7 8 9 10 9 12 8 8 9 11 14 11 16 12 11 9 9 8 7 7 6
1 0 0 0 2 3 2 0 1 2 17 7 6 2 3 6 5 5 2 4 7 7 8 10 9 9 10 9 8 10 8 9 9 12 13 12 15 13 10 10 9 8 7 7 6
1 -0 0 1 1 1 1 1 3 13 16 9 6 6 7 6 5 4 5 3 4 7 7 7 6 7 8 8 8 8 9 10 10 12 16 13 14 14 12 11 10 8 8 7 7
0 -0 1 1 3 1 1 4 12 17 8 10 8 7 7 8 7 7 7 8 9 11 11 9 9 7 7 9 8 9 11 16 17 17 16 12 13 13 11 9 9 9 8 8 7
1 -0 1 1 0 1 2 8 16 10 10 7 7 7 10 8 8 8 8 10 7 9 11 12 13 9 7 9 11 11 11 14 18 17 15 11 15 14 9 8 8 8 8 8 7
1 1 2 1 -0 1 5 12 11 9 7 9 9 11 12 9 8 8 9 9 9 9 11 13 12 9 9 8 9 11 13 10 14 13 16 13 13 11 9 9 8 9 8 8 8
3 3 2 1 1 2 7 10 8 7 7 8 13 10 14 11 10 9 9 9 9 9 9 10 14 10 10 9 9 10 9 13 13 17 18 14 14 14 12 11 9 10 10 9 8
3 6 2 1 2 5 10 8 7 6 6 8 9 11 10 11 9 10 10 9 9 9 9 10 11 12 10 11 11 11 12 11 12 12 16 17 15 11 11 10 10 10 9 9 9
4 8 3 1 7 6 8 7 8 7 6 7 7 8 9 9 11 10 10 9 9 9 10 10 11 14 12 10 9 9 10 10 14 14 13 15 15 10 10 10 9 10 9 8 8
6 6 3 3 9 8 6 7 7 7 7 7 7 6 6 8 10 9 8 8 8 8 10 9 11 14 13 11 10 11 10 9 10 12 14 17 15 10 10 10 10 10 9 8 7
5 8 6 6 6 8 8 7 7 7 8 7 8 7 7 8 7 9 9 8 7 7 7 8 10 12 14 12 11 12 11 11 12 15 14 14 14 12 11 10 10 9 8 8 8
5 8 6 9 8 7 7 7 8 9 8 8 8 8 8 9 8 9 8 9 8 8 8 9 11 11 11 11 11 12 11 12 13 13 15 13 13 11 11 10 9 8 8 8 8
6 6 6 8 7 8 7 8 8 8 8 8 9 8 8 9 10 10 8 9 9 9 10 9 12 12 13 11 11 12 11 12 12 12 12 12 13 10 9 9 9 9 8 9 9
3 4 5 7 8 9 9 7 7 7 8 8 8 8 9 9 8 8 8 9 9 10 11 11 12 13 14 11 11 14 11 11 11 11 11 14 11 9 10 9 10 10 9 9 9